N4MGC Weather Reports


time (UTC)temp
F
wind
direction
speed
knots
gust
knots
rain 1hr
in
rain 24hr
in
rain mn
in
humidity
%
barometer
mb
20260505100727 51 110 0.0 0.0 0.00 0.00 0.00 99 1012.5
20260505100223 52 110 0.0 0.0 0.00 0.00 0.00 99 1012.6
20260505095718 52 110 0.0 0.0 0.00 0.00 0.00 99 1012.4
20260505095217 52 110 0.0 0.0 0.00 0.00 0.00 98 1012.5
20260505094712 52 110 0.0 0.0 0.00 0.00 0.00 98 1012.3
20260505094209 52 110 0.0 0.0 0.00 0.00 0.00 98 1012.5
20260505093705 53 110 0.0 0.0 0.00 0.00 0.00 98 1012.4
20260505093203 52 110 0.0 0.0 0.00 0.00 0.00 98 1012.4
20260505092659 53 107 0.0 0.0 0.00 0.00 0.00 98 1012.6
20260505092158 53 110 0.0 0.0 0.00 0.00 0.00 98 1012.6
20260505091655 53 110 0.0 0.0 0.00 0.00 0.00 98 1012.6
20260505091153 53 110 0.0 0.0 0.00 0.00 0.00 98 1012.7
20260505090650 53 110 0.0 0.0 0.00 0.00 0.00 98 1012.7
20260505090148 53 110 0.0 0.0 0.00 0.00 0.00 97 1012.7
20260505085645 54 111 0.0 0.0 0.00 0.00 0.00 97 1012.9
20260505085143 54 111 0.0 0.0 0.00 0.00 0.00 97 1012.9
20260505084641 54 108 0.0 0.0 0.00 0.00 0.00 97 1012.7
20260505084139 54 108 0.0 0.0 0.00 0.00 0.00 97 1013.0
20260505083636 54 108 0.0 0.0 0.00 0.00 0.00 97 1013.1
20260505083132 54 110 0.0 0.0 0.00 0.00 0.00 96 1012.9
20260505082628 54 110 0.0 0.0 0.00 0.00 0.00 96 1013.3
20260505082125 54 110 0.0 0.0 0.00 0.00 0.00 96 1012.8
20260505081621 54 110 0.0 0.0 0.00 0.00 0.00 96 1013.1
20260505081119 54 110 0.0 0.0 0.00 0.00 0.00 96 1013.1
20260505080615 55 111 0.0 0.0 0.00 0.00 0.00 95 1012.9
20260505080112 55 111 0.0 0.0 0.00 0.00 0.00 95 1013.0
20260505075608 55 110 0.0 0.0 0.00 0.00 0.00 95 1013.2
20260505075105 55 110 0.0 0.0 0.00 0.00 0.00 95 1013.1
20260505074602 55 110 0.0 0.0 0.00 0.00 0.00 95 1013.1
20260505074059 55 110 0.0 0.0 0.00 0.00 0.00 94 1013.1
20260505073556 55 120 0.0 0.0 0.00 0.00 0.00 94 1013.0
20260505073055 55 119 0.0 0.0 0.00 0.00 0.00 95 1013.3
20260505072550 55 120 0.0 0.0 0.00 0.00 0.00 95 1013.3
20260505072047 55 107 0.0 0.0 0.00 0.00 0.00 95 1013.2
20260505071542 55 120 0.0 0.0 0.00 0.00 0.00 96 1013.1
20260505071041 55 120 0.0 0.0 0.00 0.00 0.00 96 1013.2
20260505070538 55 108 0.0 0.0 0.00 0.00 0.00 96 1013.0
20260505070033 55 118 0.0 0.0 0.00 0.00 0.00 96 1013.1
20260505065529 54 111 0.0 0.0 0.00 0.00 0.00 96 1013.1
20260505065026 54 114 0.0 0.0 0.00 0.00 0.00 96 1013.0
20260505064523 54 114 0.0 0.0 0.00 0.00 0.00 96 1012.9
20260505064022 54 114 0.0 0.0 0.00 0.00 0.00 97 1012.9
20260505063519 54 118 0.0 0.0 0.00 0.00 0.00 96 1013.2
20260505063014 54 120 0.0 0.0 0.00 0.00 0.00 96 1013.0
20260505062511 54 113 0.0 0.0 0.00 0.00 0.00 96 1013.2
20260505062009 54 107 0.0 0.0 0.00 0.00 0.00 96 1013.1
20260505061506 54 107 0.0 0.0 0.00 0.00 0.00 96 1013.2
20260505061004 54 107 0.0 0.0 0.00 0.00 0.00 95 1013.4
20260505060501 54 107 0.0 0.0 0.00 0.00 0.00 95 1013.4
20260505055957 54 106 0.0 0.0 0.00 0.00 0.00 95 1013.2
20260505055453 55 107 0.0 0.0 0.00 0.00 0.00 94 1013.5
20260505054950 55 107 0.0 0.0 0.00 0.00 0.00 94 1013.3
20260505054447 55 109 0.0 0.0 0.00 0.00 0.00 94 1013.2
20260505053945 55 111 0.0 0.0 0.00 0.00 0.00 93 1013.5
20260505053442 55 111 0.0 0.0 0.00 0.00 0.00 93 1013.3
20260505052938 55 110 0.0 0.0 0.00 0.00 0.00 93 1013.3
20260505052436 55 110 0.0 0.0 0.00 0.00 0.00 92 1013.3
20260505051933 56 110 0.0 0.0 0.00 0.00 0.00 92 1013.2
20260505051429 56 95 0.0 0.0 0.00 0.00 0.00 92 1013.0
20260505050928 56 111 0.0 0.0 0.00 0.00 0.00 91 1013.0
20260505050426 56 110 0.0 0.0 0.00 0.00 0.00 91 1013.0
20260505041353 59 149 0.0 0.0 0.00 0.00 0.00 86 1013.1
20260505040850 59 149 0.0 0.0 0.00 0.00 0.00 85 1013.1
20260505040348 59 149 0.0 0.0 0.00 0.00 0.00 85 1013.2
20260505035844 59 149 0.0 0.0 0.00 0.00 0.00 85 1013.3
20260505035340 59 149 0.0 0.0 0.00 0.00 0.00 84 1013.2
20260505034838 59 149 0.0 0.0 0.00 0.00 0.00 85 1013.2
20260505034334 60 150 0.0 0.0 0.00 0.00 0.00 85 1013.1
20260505033832 60 150 0.0 0.0 0.00 0.00 0.00 83 1013.2
20260505033328 60 150 0.0 0.0 0.00 0.00 0.00 83 1013.2
20260505032827 60 150 0.0 0.0 0.00 0.00 0.00 82 1013.2
20260505032322 60 150 0.0 0.0 0.00 0.00 0.00 82 1013.0
20260505031820 61 150 0.0 0.0 0.00 0.00 0.00 82 1013.3
20260505031316 61 150 0.0 0.0 0.00 0.00 0.00 81 1013.4
20260505030814 61 150 0.0 0.0 0.00 0.00 0.00 81 1013.1
20260505030310 61 150 0.0 0.0 0.00 0.00 0.00 81 1013.0
20260505025805 61 150 0.0 0.0 0.00 0.00 0.00 81 1013.1
20260505025304 61 150 0.0 0.0 0.00 0.00 0.00 82 1013.2
20260505024801 61 149 0.0 0.0 0.00 0.00 0.00 84 1013.2
20260505024258 61 150 0.0 0.0 0.00 0.00 0.00 84 1013.3
20260505023756 61 150 0.0 0.0 0.00 0.00 0.00 83 1013.4
20260505023252 61 150 0.0 0.0 0.00 0.00 0.00 84 1013.3
20260505022750 62 149 0.0 0.0 0.00 0.00 0.00 84 1013.3
20260505022247 62 150 0.0 0.0 0.00 0.00 0.00 83 1013.1
20260505021743 62 150 0.0 0.0 0.00 0.00 0.00 83 1013.1
20260505021240 62 150 0.0 0.0 0.00 0.00 0.00 82 1013.2
20260505020736 62 150 0.0 0.0 0.00 0.00 0.00 84 1013.4
20260505020231 62 149 0.0 0.0 0.00 0.00 0.00 83 1013.1
20260505015729 62 150 0.0 0.0 0.00 0.00 0.00 82 1013.0
20260505015226 62 149 0.0 0.0 0.00 0.00 0.00 82 1013.0
20260505014723 62 149 0.0 0.0 0.00 0.00 0.00 81 1012.9
20260505014220 63 149 0.0 0.0 0.00 0.00 0.00 81 1012.8
20260505013717 63 150 0.0 0.0 0.00 0.00 0.00 78 1012.6
20260505013214 63 149 0.0 0.0 0.00 0.00 0.00 79 1012.8
20260505012712 63 149 0.0 0.0 0.00 0.00 0.00 80 1012.6
20260505012209 63 149 0.0 0.0 0.00 0.00 0.00 81 1012.7
20260505011704 64 149 0.0 0.0 0.00 0.00 0.00 77 1012.7
20260505011202 64 149 0.0 0.0 0.00 0.00 0.00 75 1012.6
20260505010657 65 149 0.0 0.0 0.00 0.00 0.00 74 1012.5
20260505010154 65 149 0.0 0.0 0.00 0.00 0.00 73 1012.6
20260505005650 66 149 0.0 0.0 0.00 0.00 0.00 71 1012.6
20260505005148 66 151 0.0 0.0 0.00 0.00 0.00 70 1012.4
20260505004645 66 151 0.0 0.0 0.00 0.00 0.00 69 1012.4
20260505004141 67 151 0.0 0.0 0.00 0.00 0.00 68 1012.4
20260505003638 68 148 0.0 0.0 0.00 0.00 0.00 67 1012.5
20260505003136 68 148 0.0 0.0 0.00 0.00 0.00 66 1012.6
20260505002632 69 148 0.0 0.0 0.00 0.00 0.00 63 1012.3
20260505002130 69 149 0.0 0.0 0.00 0.00 0.00 61 1012.3
20260505001627 70 149 0.0 0.0 0.00 0.00 0.00 60 1012.3
20260505001125 70 150 0.0 0.0 0.00 0.00 0.00 61 1012.2
20260505000621 71 150 0.0 0.0 0.00 0.00 0.00 61 1012.3
20260505000119 72 151 0.0 0.0 0.00 0.00 0.00 56 1012.2
20260504235615 73 181 0.0 0.0 0.00 0.00 0.00 57 1012.3
20260504235112 73 180 0.0 0.0 0.00 0.00 0.00 55 1012.4
20260504234609 73 160 0.0 0.0 0.00 0.00 0.00 53 1012.2
20260504234106 74 182 0.0 0.0 0.00 0.00 0.00 51 1012.4
20260504233602 75 182 0.0 0.0 0.00 0.00 0.00 50 1012.3
20260504233058 75 179 0.0 0.0 0.00 0.00 0.00 46 1012.1
20260504232556 75 196 0.0 0.0 0.00 0.00 0.00 47 1012.2
20260504232053 75 192 0.0 0.0 0.00 0.00 0.00 48 1012.3
20260504231549 75 195 0.0 0.9 0.00 0.00 0.00 48 1012.3
20260504231045 76 183 0.0 0.0 0.00 0.00 0.00 47 1012.3
20260504230542 76 188 2.6 4.3 0.00 0.00 0.00 46 1012.4
20260504230041 76 186 0.0 0.0 0.00 0.00 0.00 47 1012.5
20260504225538 76 189 1.7 4.3 0.00 0.00 0.00 45 1012.6
20260504225035 77 161 0.9 1.7 0.00 0.00 0.00 45 1012.5
20260504224531 77 190 0.0 0.0 0.00 0.00 0.00 47 1012.6
20260504224029 77 178 0.0 0.0 0.00 0.00 0.00 44 1012.6
20260504223525 77 201 0.0 0.0 0.00 0.00 0.00 44 1012.9
20260504223021 78 196 2.6 4.3 0.00 0.00 0.00 43 1012.7
20260504222518 78 176 0.0 0.0 0.00 0.00 0.00 44 1012.9
20260504222016 79 188 1.7 1.7 0.00 0.00 0.00 41 1012.9
20260504221513 79 196 0.0 0.0 0.00 0.00 0.00 41 1012.8
20260504221010 79 195 0.0 0.0 0.00 0.00 0.00 43 1013.0
20260504220506 78 201 0.9 0.9 0.00 0.00 0.00 42 1013.1
20260504220003 78 188 0.0 0.0 0.00 0.00 0.00 42 1013.0
20260504215459 79 191 2.6 2.6 0.00 0.00 0.00 40 1012.9
20260504214956 80 201 0.9 2.6 0.00 0.00 0.00 40 1012.9
20260504214453 79 141 0.9 0.9 0.00 0.00 0.00 41 1012.9
20260504213949 80 196 0.0 0.9 0.00 0.00 0.00 42 1013.1
20260504213445 80 175 0.0 0.0 0.00 0.00 0.00 42 1012.9
20260504212943 79 197 0.0 0.0 0.00 0.00 0.00 42 1013.0
20260504212438 80 240 1.7 4.3 0.00 0.00 0.00 43 1013.2
20260504211937 80 222 0.0 0.0 0.00 0.00 0.00 42 1013.1
20260504211433 80 134 0.0 0.0 0.00 0.00 0.00 41 1013.3
20260504210931 80 241 0.9 1.7 0.00 0.00 0.00 40 1013.4
20260504210427 79 172 0.0 0.0 0.00 0.00 0.00 41 1013.5
20260504205924 79 186 0.0 0.9 0.00 0.00 0.00 41 1013.4
20260504205422 79 204 0.0 0.0 0.00 0.00 0.00 42 1013.5
20260504204920 79 125 0.0 0.0 0.00 0.00 0.00 43 1013.7
20260504204418 79 211 2.6 4.3 0.00 0.00 0.00 44 1013.5
20260504203917 79 153 0.9 1.7 0.00 0.00 0.00 43 1013.6
20260504203414 80 346 0.0 0.9 0.00 0.00 0.00 43 1013.5
20260504202909 79 195 0.9 2.6 0.00 0.00 0.00 44 1013.4
20260504202406 81 193 0.0 0.0 0.00 0.00 0.00 41 1013.8
20260504201903 80 122 0.0 0.0 0.00 0.00 0.00 48 1013.7
20260504201401 80 289 2.6 4.3 0.00 0.00 0.00 42 1013.9
20260504200858 81 248 1.7 2.6 0.00 0.00 0.00 42 1013.9
20260504200354 81 186 0.0 0.9 0.00 0.00 0.00 43 1013.6
20260504195851 80 297 0.9 0.9 0.00 0.00 0.00 46 1013.7
20260504195346 80 206 0.0 0.9 0.00 0.00 0.00 44 1013.6
20260504194843 79 210 0.0 0.9 0.00 0.00 0.00 46 1013.9
20260504194339 78 210 0.0 0.0 0.00 0.00 0.00 46 1014.1
20260504193836 80 217 0.9 1.7 0.00 0.00 0.00 45 1014.1
20260504193333 80 190 0.0 0.9 0.00 0.00 0.00 43 1014.2
20260504192832 79 214 0.0 0.0 0.00 0.00 0.00 44 1014.2
20260504192329 79 174 0.9 2.6 0.00 0.00 0.00 49 1014.3
20260504191827 79 247 1.7 1.7 0.00 0.00 0.00 45 1014.5
20260504191325 80 299 0.9 2.6 0.00 0.00 0.00 42 1014.6
20260504190820 79 193 0.0 0.0 0.00 0.00 0.00 48 1014.7
20260504190316 79 207 0.9 1.7 0.00 0.00 0.00 48 1014.6
20260504185813 79 194 0.9 1.7 0.00 0.00 0.00 45 1014.7
20260504185310 80 204 0.0 0.9 0.00 0.00 0.00 49 1014.6
20260504184806 79 182 0.0 0.0 0.00 0.00 0.00 44 1014.5
20260504184302 78 236 0.0 0.0 0.00 0.00 0.00 44 1014.6
20260504183758 80 212 0.9 0.9 0.00 0.00 0.00 46 1014.8
20260504183255 79 120 0.0 0.0 0.00 0.00 0.00 48 1014.9
20260504182753 80 182 0.0 0.0 0.00 0.00 0.00 45 1015.0
20260504182250 80 206 0.0 0.0 0.00 0.00 0.00 49 1014.9
20260504181748 78 205 0.0 0.0 0.00 0.00 0.00 52 1014.9
20260504181245 78 262 0.0 0.0 0.00 0.00 0.00 46 1015.1
20260504180744 77 220 0.0 0.0 0.00 0.00 0.00 53 1015.4
20260504180242 76 208 0.0 0.0 0.00 0.00 0.00 51 1015.4
20260504175739 78 256 0.0 0.9 0.00 0.00 0.00 50 1015.5
20260504175236 77 122 0.0 0.0 0.00 0.00 0.00 46 1015.4
20260504174734 77 208 0.0 0.0 0.00 0.00 0.00 50 1015.6
20260504174232 77 182 0.0 0.0 0.00 0.00 0.00 53 1015.5
20260504173727 77 270 0.0 0.0 0.00 0.00 0.00 51 1015.8
20260504173225 77 355 0.0 0.0 0.00 0.00 0.00 49 1015.8
20260504172721 75 25 0.9 1.7 0.00 0.00 0.00 50 1015.6
20260504172218 75 188 0.9 1.7 0.00 0.00 0.00 48 1015.8
20260504171714 75 220 0.0 0.0 0.00 0.00 0.00 52 1015.8
20260504171211 77 197 3.5 4.3 0.00 0.00 0.00 48 1015.9
20260504170708 76 165 0.0 0.0 0.00 0.00 0.00 50 1015.8
20260504170206 76 229 0.9 0.9 0.00 0.00 0.00 49 1016.0
20260504160124 74 351 0.0 0.0 0.00 0.00 0.00 57 1016.9
20260504151051 69 205 0.0 0.0 0.00 0.00 0.00 64 1016.9
20260504150549 67 170 0.0 0.0 0.00 0.00 0.00 66 1017.3
20260504141015 59 176 0.0 0.0 0.00 0.00 0.00 79 1017.5
20260504140511 58 151 0.0 0.0 0.00 0.00 0.00 80 1017.6
20260504130436 50 78 0.0 0.0 0.00 0.00 0.00 99 1017.9
20260504110323 42 114 0.0 0.0 0.00 0.00 0.00 99 1016.7